Location: Bonaustraße
(48.4603°N, 11.9280°E)
Time: 03:07:21
(UTC+01:00)

Envisat - Pass Details

Date: 23 January 2021
Orbit: 764 x 766 km, 98.1° (Epoch: 05 March)

Event Time Altitude Azimuth Distance (km) Brightness Sun altitude
Rises 18:05:41 0° 200° (SSW) 3,220 6.8 -11.3°
Reaches altitude 10° 18:08:24 10° 215° (SW) 2,300 6.3 -11.8°
Maximum altitude 18:12:27 24° 268° (W) 1,553 5.6 -12.4°
Drops below altitude 10° 18:16:33 10° 322° (NW) 2,314 5.8 -13.1°
Sets 18:19:18 0° 336° (NNW) 3,245 6.4 -13.5°
